Alliance, NE

4:56 AM MST on January 20, 2018 (GMT -0700)
Alliance Municipal

Weather History for KAIA - October, 2014

Change the Weather History Date:

Thursday, October 9, 2014

  Actual Average Record
Temperature  
Mean Temperature 50 °F 48 °F  
Max Temperature 60 °F 65 °F 88 °F (2003)
Min Temperature 39 °F 32 °F 17 °F (2009)
Degree Days  
Heating Degree Days 15 17  
Month to date heating degree days 119 134  
Since 1 July heating degree days 307 379  
Cooling Degree Days 0 0  
Month to date cooling degree days 0 0  
Year to date cooling degree days 499 563  
Moisture  
Dew Point 42 °F    
Average Humidity 93    
Maximum Humidity 100    
Minimum Humidity 86    
Precipitation  
Precipitation 0.00 in 0.04 in 0.80 in (1923)
Month to date precipitation 0.11 0.41  
Year to date precipitation 17.38 14.21  
Sea Level Pressure  
Sea Level Pressure 30.09 in    
Wind  
Wind Speed 8 mph (NE)    
Max Wind Speed 18 mph    
Max Gust Speed 21 mph    
Visibility 10 miles    
Events      
T = Trace of Precipitation, MM = Missing Value Source: NWS Daily Summary

Daily Weather History Graph

Daily Weather History Graph

Search for Another Location

Airport or City:

Trip Planner

Search our weather history database for the weather conditions in past years. The results will help you decide how hot, cold, wet, or windy it might be!

Date:

Astronomy

Oct. 09, 2014 Rise Set
Actual Time 6:57 AM MDT 6:19 PM MDT
Civil Twilight 6:29 AM MDT 6:47 PM MDT
Nautical Twilight 5:56 AM MDT 7:19 PM MDT
Astronomical Twilight 5:24 AM MDT 7:51 PM MDT
Moon 7:15 PM MDT (10/9) 8:15 AM MDT (10/9)
Length of Visible Light 12h 18m
Length of Day
11h 22m
Full, 98% of the Moon is Illuminated
Oct 9
Full
Oct 15
Last Quarter
Oct 23
New
Oct 30
First Quarter
Nov 6
Full

Hourly Weather History & Observations

Time (MDT) Temp. Windchill Dew Point Humidity Pressure Visibility Wind Dir Wind Speed Gust Speed Precip Events Conditions
12:53 AM 44.1 °F - 44.1 °F 100% 29.97 in 10.0 mi Calm Calm - N/A   Clear
1:53 AM 44.1 °F 41.5 °F 42.1 °F 93% 29.97 in 10.0 mi NNW 4.6 mph - N/A   Clear
2:53 AM 42.1 °F 38.4 °F 41.0 °F 96% 29.96 in 10.0 mi NNW 5.8 mph - N/A   Clear
3:53 AM 43.0 °F 40.3 °F 39.9 °F 89% 29.97 in 10.0 mi NNE 4.6 mph - N/A   Clear
4:53 AM 42.1 °F 40.2 °F 39.9 °F 92% 29.97 in 10.0 mi North 3.5 mph - N/A   Clear
5:53 AM 42.1 °F 38.4 °F 39.0 °F 89% 30.01 in 10.0 mi North 5.8 mph - N/A   Clear
6:53 AM 39.9 °F 37.8 °F 37.0 °F 89% 30.06 in 10.0 mi NNE 3.5 mph - N/A   Clear
7:53 AM 41.0 °F 38.0 °F 37.9 °F 89% 30.09 in 10.0 mi NNE 4.6 mph - N/A   Clear
8:53 AM 44.1 °F 37.1 °F 39.0 °F 82% 30.10 in 10.0 mi NNE 15.0 mph - N/A   Clear
9:53 AM 48.0 °F - 39.9 °F 74% 30.10 in 10.0 mi North 12.7 mph - N/A   Clear
10:53 AM 50.0 °F - 39.9 °F 68% 30.11 in 10.0 mi NNE 12.7 mph - N/A   Clear
11:53 AM 55.0 °F - 43.0 °F 64% 30.09 in 10.0 mi ENE 9.2 mph - N/A   Clear
12:53 PM 57.9 °F - 44.1 °F 60% 30.11 in 10.0 mi NE 11.5 mph - N/A   Clear
1:53 PM 57.9 °F - 44.1 °F 60% 30.09 in 10.0 mi NE 12.7 mph - N/A   Clear
2:53 PM 57.2 °F - 44.6 °F 63% 30.12 in 10.0 mi ENE 13.8 mph - N/A   Clear
3:53 PM 59.0 °F - 45.0 °F 60% 30.09 in 10.0 mi East 13.8 mph - N/A   Clear
4:53 PM 57.9 °F - 45.0 °F 62% 30.10 in 10.0 mi ENE 12.7 mph - N/A   Clear
5:53 PM 55.9 °F - 45.0 °F 67% 30.11 in 10.0 mi NE 8.1 mph - N/A   Clear
6:53 PM 51.1 °F - 44.1 °F 77% 30.15 in 10.0 mi NNE 9.2 mph - N/A   Clear
7:53 PM 50.0 °F - 44.1 °F 80% 30.17 in 10.0 mi NE 8.1 mph - N/A   Clear
8:53 PM 48.9 °F - 44.1 °F 83% 30.18 in 10.0 mi ENE 5.8 mph - N/A   Scattered Clouds
9:53 PM 46.0 °F 42.5 °F 43.0 °F 89% 30.19 in 10.0 mi NE 6.9 mph - N/A   Scattered Clouds
10:53 PM 45.0 °F 42.6 °F 43.0 °F 93% 30.19 in 10.0 mi NE 4.6 mph - N/A   Overcast
11:53 PM 44.1 °F 41.5 °F 42.1 °F 93% 30.19 in 10.0 mi East 4.6 mph - N/A   Mostly Cloudy